owner,sensor,date,latitude,longitude,vertical_datum,sea_water_practical_salinity,qcFlag 
SCCF RECON,ioos:station:SCCF:11:1,2013-06-01T00:00:00Z,26.4679,-82.0631,1.93,34.29,1111122 
SCCF RECON,ioos:station:SCCF:11:1,2013-06-01T01:00:00Z,26.4679,-82.0631,1.93,34.59,1111122 
SCCF RECON,ioos:station:SCCF:11:1,2013-06-01T02:00:00Z,26.4679,-82.0631,1.82,33.62,1111122 
SCCF RECON,ioos:station:SCCF:11:1,2013-06-01T03:00:00Z,26.4679,-82.0631,1.74,33.14,1111122 
SCCF RECON,ioos:station:SCCF:11:1,2013-06-01T04:00:00Z,26.4679,-82.0631,1.66,33.02,1111122 
SCCF RECON,ioos:station:SCCF:11:1,2013-06-01T05:00:00Z,26.4679,-82.0631,1.58,32.79,1111122 
SCCF RECON,ioos:station:SCCF:11:1,2013-06-01T06:00:00Z,26.4679,-82.0631,1.54,32.91,1111122 
SCCF RECON,ioos:station:SCCF:11:1,2013-06-01T07:00:00Z,26.4679,-82.0631,1.53,33.18,1111122 
SCCF RECON,ioos:station:SCCF:11:1,2013-06-01T08:00:00Z,26.4679,-82.0631,1.637,33.47,1111122 
SCCF RECON,ioos:station:SCCF:11:1,2013-06-01T09:00:00Z,26.4679,-82.0631,1.79,33.63,1111122 
SCCF RECON,ioos:station:SCCF:11:1,2013-06-01T10:00:00Z,26.4679,-82.0631,1.9,33.79,1111122 
SCCF RECON,ioos:station:SCCF:11:1,2013-06-01T11:00:00Z,26.4679,-82.0631,1.979,34.08,1111122 
SCCF RECON,ioos:station:SCCF:11:1,2013-06-01T12:00:00Z,26.4679,-82.0631,2.02,34.33,1111122 
SCCF RECON,ioos:station:SCCF:11:1,2013-06-01T13:00:00Z,26.4679,-82.0631,2.06,34.47,1111122 
SCCF RECON,ioos:station:SCCF:11:1,2013-06-01T14:00:00Z,26.4679,-82.0631,2.05,34.43,1111122 
SCCF RECON,ioos:station:SCCF:11:1,2013-06-01T15:00:00Z,26.4679,-82.0631,1.96,34.04,1111122 
SCCF RECON,ioos:station:SCCF:11:1,2013-06-01T16:00:00Z,26.4679,-82.0631,1.84,33.72,1111122 
SCCF RECON,ioos:station:SCCF:11:1,2013-06-01T17:00:00Z,26.4679,-82.0631,1.75,33.36,1111122 
SCCF RECON,ioos:station:SCCF:11:1,2013-06-01T18:00:00Z,26.4679,-82.0631,1.66,33.21,1111122 
SCCF RECON,ioos:station:SCCF:11:1,2013-06-01T19:00:00Z,26.4679,-82.0631,1.58,33.16,1111122 
SCCF RECON,ioos:station:SCCF:11:1,2013-06-01T20:00:00Z,26.4679,-82.0631,1.6,33.39,1111122 
SCCF RECON,ioos:station:SCCF:11:1,2013-06-01T21:00:00Z,26.4679,-82.0631,1.72,34.45,1111122 
SCCF RECON,ioos:station:SCCF:11:1,2013-06-01T22:00:00Z,26.4679,-82.0631,1.84,34.42,1111122 
SCCF RECON,ioos:station:SCCF:11:1,2013-06-01T23:00:00Z,26.4679,-82.0631,1.899,34.34,1111122 
SCCF RECON,ioos:station:SCCF:11:1,2013-06-02T00:00:00Z,26.4679,-82.0631,1.91,34.21,1111122 
SCCF RECON,ioos:station:SCCF:11:1,2013-06-02T01:00:00Z,26.4679,-82.0631,1.94,34.36,1111122 
SCCF RECON,ioos:station:SCCF:11:1,2013-06-02T02:00:00Z,26.4679,-82.0631,1.91,34.26,1111122 
SCCF RECON,ioos:station:SCCF:11:1,2013-06-02T03:00:00Z,26.4679,-82.0631,1.83,33.67,1111122 
SCCF RECON,ioos:station:SCCF:11:1,2013-06-02T04:00:00Z,26.4679,-82.0631,1.8,33.83,1111122 
SCCF RECON,ioos:station:SCCF:11:1,2013-06-02T05:00:00Z,26.4679,-82.0631,1.73,33.75,1111122 
SCCF RECON,ioos:station:SCCF:11:1,2013-06-02T06:00:00Z,26.4679,-82.0631,1.65,33.27,1111122 
SCCF RECON,ioos:station:SCCF:11:1,2013-06-02T07:00:00Z,26.4679,-82.0631,1.59,33.26,1111122 
SCCF RECON,ioos:station:SCCF:11:1,2013-06-02T08:00:00Z,26.4679,-82.0631,1.58,33.32,1111122 
SCCF RECON,ioos:station:SCCF:11:1,2013-06-02T09:00:00Z,26.4679,-82.0631,1.66,33.99,1111122 
SCCF RECON,ioos:station:SCCF:11:1,2013-06-02T10:00:00Z,26.4679,-82.0631,1.83,33.36,1111122 
SCCF RECON,ioos:station:SCCF:11:1,2013-06-02T11:00:00Z,26.4679,-82.0631,1.91,32.36,1111122 
SCCF RECON,ioos:station:SCCF:11:1,2013-06-02T12:00:00Z,26.4679,-82.0631,1.92,32.74,1111122 
SCCF RECON,ioos:station:SCCF:11:1,2013-06-02T13:00:00Z,26.4679,-82.0631,2.0,33.76,1111122 
SCCF RECON,ioos:station:SCCF:11:1,2013-06-02T14:00:00Z,26.4679,-82.0631,2.05,33.39,1111122 
SCCF RECON,ioos:station:SCCF:11:1,2013-06-02T15:00:00Z,26.4679,-82.0631,2.0,33.43,1111122 
SCCF RECON,ioos:station:SCCF:11:1,2013-06-02T16:00:00Z,26.4679,-82.0631,1.88,33.21,1111122 
SCCF RECON,ioos:station:SCCF:11:1,2013-06-02T17:00:00Z,26.4679,-82.0631,1.73,33.3,1111122 
SCCF RECON,ioos:station:SCCF:11:1,2013-06-02T18:00:00Z,26.4679,-82.0631,1.64,33.33,1111122 
SCCF RECON,ioos:station:SCCF:11:1,2013-06-02T19:00:00Z,26.4679,-82.0631,1.55,33.2,1111122 
SCCF RECON,ioos:station:SCCF:11:1,2013-06-02T20:00:00Z,26.4679,-82.0631,1.52,33.18,1111122 
SCCF RECON,ioos:station:SCCF:11:1,2013-06-02T21:00:00Z,26.4679,-82.0631,1.57,33.3,1111122 
SCCF RECON,ioos:station:SCCF:11:1,2013-06-02T22:00:00Z,26.4679,-82.0631,1.686,33.8,1111122 
SCCF RECON,ioos:station:SCCF:11:1,2013-06-02T23:00:00Z,26.4679,-82.0631,1.74,33.72,1111122 
SCCF RECON,ioos:station:SCCF:11:1,2013-06-03T00:00:00Z,26.4679,-82.0631,1.79,33.75,1111122 
SCCF RECON,ioos:station:SCCF:11:1,2013-06-03T01:00:00Z,26.4679,-82.0631,1.87,33.97,1111122 
SCCF RECON,ioos:station:SCCF:11:1,2013-06-03T02:00:00Z,26.4679,-82.0631,1.94,33.9,1111122 
SCCF RECON,ioos:station:SCCF:11:1,2013-06-03T03:00:00Z,26.4679,-82.0631,1.98,33.97,1111122 
SCCF RECON,ioos:station:SCCF:11:1,2013-06-03T04:00:00Z,26.4679,-82.0631,1.94,33.94,1111122 
SCCF RECON,ioos:station:SCCF:11:1,2013-06-03T05:00:00Z,26.4679,-82.0631,1.85,33.74,1111122 
SCCF RECON,ioos:station:SCCF:11:1,2013-06-03T06:00:00Z,26.4679,-82.0631,1.78,33.66,1111122 
SCCF RECON,ioos:station:SCCF:11:1,2013-06-03T07:00:00Z,26.4679,-82.0631,1.72,33.59,1111122 
SCCF RECON,ioos:station:SCCF:11:1,2013-06-03T08:00:00Z,26.4679,-82.0631,1.66,33.45,1111122 
SCCF RECON,ioos:station:SCCF:11:1,2013-06-03T09:00:00Z,26.4679,-82.0631,1.66,33.49,1111122 
SCCF RECON,ioos:station:SCCF:11:1,2013-06-03T10:00:00Z,26.4679,-82.0631,1.76,33.89,1111122 
SCCF RECON,ioos:station:SCCF:11:1,2013-06-03T11:00:00Z,26.4679,-82.0631,1.9,34.05,1111122 
SCCF RECON,ioos:station:SCCF:11:1,2013-06-03T12:00:00Z,26.4679,-82.0631,1.97,34.11,1111122 
SCCF RECON,ioos:station:SCCF:11:1,2013-06-03T13:00:00Z,26.4679,-82.0631,2.03,34.12,1111122 
SCCF RECON,ioos:station:SCCF:11:1,2013-06-03T14:00:00Z,26.4679,-82.0631,2.09,34.35,1111122 
SCCF RECON,ioos:station:SCCF:11:1,2013-06-03T15:00:00Z,26.4679,-82.0631,2.09,34.27,1111122 
SCCF RECON,ioos:station:SCCF:11:1,2013-06-03T16:00:00Z,26.4679,-82.0631,1.977,33.91,1111122 
SCCF RECON,ioos:station:SCCF:11:1,2013-06-03T17:00:00Z,26.4679,-82.0631,1.87,33.83,1111122 
SCCF RECON,ioos:station:SCCF:11:1,2013-06-03T18:00:00Z,26.4679,-82.0631,1.78,33.76,1111122 
SCCF RECON,ioos:station:SCCF:11:1,2013-06-03T19:00:00Z,26.4679,-82.0631,1.656,33.77,1111122 
SCCF RECON,ioos:station:SCCF:11:1,2013-06-03T20:00:00Z,26.4679,-82.0631,1.54,33.63,1111122 
SCCF RECON,ioos:station:SCCF:11:1,2013-06-03T21:00:00Z,26.4679,-82.0631,1.43,33.6,1111122 
SCCF RECON,ioos:station:SCCF:11:1,2013-06-03T22:00:00Z,26.4679,-82.0631,1.43,33.54,1111122 
SCCF RECON,ioos:station:SCCF:11:1,2013-06-03T23:00:00Z,26.4679,-82.0631,1.54,33.73,1111122 
SCCF RECON,ioos:station:SCCF:11:1,2013-06-04T00:00:00Z,26.4679,-82.0631,1.663,33.97,1111122 
SCCF RECON,ioos:station:SCCF:11:1,2013-06-04T01:00:00Z,26.4679,-82.0631,1.77,34.09,1111122 
SCCF RECON,ioos:station:SCCF:11:1,2013-06-04T02:00:00Z,26.4679,-82.0631,1.85,34.2,1111122 
SCCF RECON,ioos:station:SCCF:11:1,2013-06-04T03:00:00Z,26.4679,-82.0631,1.92,34.28,1111122 
SCCF RECON,ioos:station:SCCF:11:1,2013-06-04T04:00:00Z,26.4679,-82.0631,1.95,34.26,1111122 
SCCF RECON,ioos:station:SCCF:11:1,2013-06-04T05:00:00Z,26.4679,-82.0631,1.89,34.24,1111122 
SCCF RECON,ioos:station:SCCF:11:1,2013-06-04T06:00:00Z,26.4679,-82.0631,1.86,34.14,1111122 
SCCF RECON,ioos:station:SCCF:11:1,2013-06-04T07:00:00Z,26.4679,-82.0631,1.917,34.1,1111122 
SCCF RECON,ioos:station:SCCF:11:1,2013-06-04T08:00:00Z,26.4679,-82.0631,1.67,34.15,1111122 
SCCF RECON,ioos:station:SCCF:11:1,2013-06-04T09:00:00Z,26.4679,-82.0631,1.64,33.82,1111122 
SCCF RECON,ioos:station:SCCF:11:1,2013-06-04T10:00:00Z,26.4679,-82.0631,1.69,34.12,1111122 
SCCF RECON,ioos:station:SCCF:11:1,2013-06-04T11:00:00Z,26.4679,-82.0631,1.79,34.54,1111122 
SCCF RECON,ioos:station:SCCF:11:1,2013-06-04T12:00:00Z,26.4679,-82.0631,1.92,34.51,1111122 
SCCF RECON,ioos:station:SCCF:11:1,2013-06-04T13:00:00Z,26.4679,-82.0631,2.02,34.51,1111122 
SCCF RECON,ioos:station:SCCF:11:1,2013-06-04T14:00:00Z,26.4679,-82.0631,2.08,34.82,1111122 
SCCF RECON,ioos:station:SCCF:11:1,2013-06-04T15:00:00Z,26.4679,-82.0631,2.1,34.88,1111122 
SCCF RECON,ioos:station:SCCF:11:1,2013-06-04T16:00:00Z,26.4679,-82.0631,2.06,34.84,1111122 
SCCF RECON,ioos:station:SCCF:11:1,2013-06-04T17:00:00Z,26.4679,-82.0631,1.91,34.44,1111122 
SCCF RECON,ioos:station:SCCF:11:1,2013-06-04T18:00:00Z,26.4679,-82.0631,1.79,34.12,1111122 
SCCF RECON,ioos:station:SCCF:11:1,2013-06-04T19:00:00Z,26.4679,-82.0631,1.67,34.05,1111122 
SCCF RECON,ioos:station:SCCF:11:1,2013-06-04T20:00:00Z,26.4679,-82.0631,1.517,33.94,1111122 
SCCF RECON,ioos:station:SCCF:11:1,2013-06-04T21:00:00Z,26.4679,-82.0631,1.39,33.84,1111122 
SCCF RECON,ioos:station:SCCF:11:1,2013-06-04T22:00:00Z,26.4679,-82.0631,1.32,33.79,1111122 
SCCF RECON,ioos:station:SCCF:11:1,2013-06-04T23:00:00Z,26.4679,-82.0631,1.35,33.77,1111122 
SCCF RECON,ioos:station:SCCF:11:1,2013-06-05T00:00:00Z,26.4679,-82.0631,1.48,34.05,1111122 
SCCF RECON,ioos:station:SCCF:11:1,2013-06-05T01:00:00Z,26.4679,-82.0631,1.62,34.02,1111122 
SCCF RECON,ioos:station:SCCF:11:1,2013-06-05T02:00:00Z,26.4679,-82.0631,1.7,33.75,1111122 
SCCF RECON,ioos:station:SCCF:11:1,2013-06-05T03:00:00Z,26.4679,-82.0631,1.76,33.95,1111122 
SCCF RECON,ioos:station:SCCF:11:1,2013-06-05T04:00:00Z,26.4679,-82.0631,1.82,32.94,1111122 
SCCF RECON,ioos:station:SCCF:11:1,2013-06-05T05:00:00Z,26.4679,-82.0631,1.85,32.37,1111122 
SCCF RECON,ioos:station:SCCF:11:1,2013-06-05T06:00:00Z,26.4679,-82.0631,1.82,32.76,1111122 
SCCF RECON,ioos:station:SCCF:11:1,2013-06-05T07:00:00Z,26.4679,-82.0631,1.74,33.31,1111122 
SCCF RECON,ioos:station:SCCF:11:1,2013-06-05T08:00:00Z,26.4679,-82.0631,1.68,33.71,1111122 
SCCF RECON,ioos:station:SCCF:11:1,2013-06-05T09:00:00Z,26.4679,-82.0631,1.62,33.73,1111122 
SCCF RECON,ioos:station:SCCF:11:1,2013-06-05T10:00:00Z,26.4679,-82.0631,1.6,33.73,1111122 
SCCF RECON,ioos:station:SCCF:11:1,2013-06-05T11:00:00Z,26.4679,-82.0631,1.66,33.71,1111122 
SCCF RECON,ioos:station:SCCF:11:1,2013-06-05T12:00:00Z,26.4679,-82.0631,1.81,34.19,1111122 
SCCF RECON,ioos:station:SCCF:11:1,2013-06-05T13:00:00Z,26.4679,-82.0631,1.9,34.29,1111122 
SCCF RECON,ioos:station:SCCF:11:1,2013-06-05T14:00:00Z,26.4679,-82.0631,1.97,34.52,1111122 
SCCF RECON,ioos:station:SCCF:11:1,2013-06-05T15:00:00Z,26.4679,-82.0631,2.04,34.75,1111122 
SCCF RECON,ioos:station:SCCF:11:1,2013-06-05T16:00:00Z,26.4679,-82.0631,2.081,34.99,1111122 
SCCF RECON,ioos:station:SCCF:11:1,2013-06-05T17:00:00Z,26.4679,-82.0631,1.998,34.96,1111122 
SCCF RECON,ioos:station:SCCF:11:1,2013-06-05T18:00:00Z,26.4679,-82.0631,1.82,34.12,1111122 
SCCF RECON,ioos:station:SCCF:11:1,2013-06-05T19:00:00Z,26.4679,-82.0631,1.68,33.95,1111122 
SCCF RECON,ioos:station:SCCF:11:1,2013-06-05T20:00:00Z,26.4679,-82.0631,1.57,33.98,1111122 
SCCF RECON,ioos:station:SCCF:11:1,2013-06-05T21:00:00Z,26.4679,-82.0631,1.424,33.8,1111122 
SCCF RECON,ioos:station:SCCF:11:1,2013-06-05T22:00:00Z,26.4679,-82.0631,1.31,33.69,1111122 
SCCF RECON,ioos:station:SCCF:11:1,2013-06-05T23:00:00Z,26.4679,-82.0631,1.27,33.61,1111122 
SCCF RECON,ioos:station:SCCF:11:1,2013-06-06T00:00:00Z,26.4679,-82.0631,1.379,33.84,1111122 
SCCF RECON,ioos:station:SCCF:11:1,2013-06-06T01:00:00Z,26.4679,-82.0631,1.534,33.86,1111122 
SCCF RECON,ioos:station:SCCF:11:1,2013-06-06T02:00:00Z,26.4679,-82.0631,1.66,33.83,1111122 
SCCF RECON,ioos:station:SCCF:11:1,2013-06-06T03:00:00Z,26.4679,-82.0631,1.75,33.86,1111122 
SCCF RECON,ioos:station:SCCF:11:1,2013-06-06T04:00:00Z,26.4679,-82.0631,1.83,33.57,1111122 
SCCF RECON,ioos:station:SCCF:11:1,2013-06-06T05:00:00Z,26.4679,-82.0631,1.9,33.72,1111122 
SCCF RECON,ioos:station:SCCF:11:1,2013-06-06T06:00:00Z,26.4679,-82.0631,1.94,34.43,1111122 
SCCF RECON,ioos:station:SCCF:11:1,2013-06-06T07:00:00Z,26.4679,-82.0631,1.85,33.43,1111122 
SCCF RECON,ioos:station:SCCF:11:1,2013-06-06T08:00:00Z,26.4679,-82.0631,1.88,34.72,1111122 
SCCF RECON,ioos:station:SCCF:11:1,2013-06-06T09:00:00Z,26.4679,-82.0631,1.88,34.62,1111122 
SCCF RECON,ioos:station:SCCF:11:1,2013-06-06T10:00:00Z,26.4679,-82.0631,1.84,34.63,1111122 
SCCF RECON,ioos:station:SCCF:11:1,2013-06-06T11:00:00Z,26.4679,-82.0631,1.83,34.37,1111122 
SCCF RECON,ioos:station:SCCF:11:1,2013-06-06T12:00:00Z,26.4679,-82.0631,1.929,34.71,1111122 
SCCF RECON,ioos:station:SCCF:11:1,2013-06-06T13:00:00Z,26.4679,-82.0631,2.07,34.73,1111122 
SCCF RECON,ioos:station:SCCF:11:1,2013-06-06T14:00:00Z,26.4679,-82.0631,2.212,34.64,1111122 
SCCF RECON,ioos:station:SCCF:11:1,2013-06-06T15:00:00Z,26.4679,-82.0631,2.28,34.61,1111122 
SCCF RECON,ioos:station:SCCF:11:1,2013-06-06T16:00:00Z,26.4679,-82.0631,2.312,34.74,1111122 
SCCF RECON,ioos:station:SCCF:11:1,2013-06-06T17:00:00Z,26.4679,-82.0631,2.32,34.59,1111122 
SCCF RECON,ioos:station:SCCF:11:1,2013-06-06T18:00:00Z,26.4679,-82.0631,2.3,34.71,1111122 
SCCF RECON,ioos:station:SCCF:11:1,2013-06-06T19:00:00Z,26.4679,-82.0631,2.14,33.68,1111122 
SCCF RECON,ioos:station:SCCF:11:1,2013-06-06T20:00:00Z,26.4679,-82.0631,1.957,33.57,1111122 
SCCF RECON,ioos:station:SCCF:11:1,2013-06-06T21:00:00Z,26.4679,-82.0631,1.83,33.72,1111122 
SCCF RECON,ioos:station:SCCF:11:1,2013-06-06T22:00:00Z,26.4679,-82.0631,1.67,33.79,1111122 
SCCF RECON,ioos:station:SCCF:11:1,2013-06-06T23:00:00Z,26.4679,-82.0631,1.52,33.46,1111122 
SCCF RECON,ioos:station:SCCF:11:1,2013-06-07T00:00:00Z,26.4679,-82.0631,1.54,32.93,1111122 
SCCF RECON,ioos:station:SCCF:11:1,2013-06-07T01:00:00Z,26.4679,-82.0631,1.64,33.49,1111122 
SCCF RECON,ioos:station:SCCF:11:1,2013-06-07T02:00:00Z,26.4679,-82.0631,1.8,34.27,1111122 
SCCF RECON,ioos:station:SCCF:11:1,2013-06-07T03:00:00Z,26.4679,-82.0631,1.89,34.21,1111122 
SCCF RECON,ioos:station:SCCF:11:1,2013-06-07T04:00:00Z,26.4679,-82.0631,1.92,34.34,1111122 
SCCF RECON,ioos:station:SCCF:11:1,2013-06-07T05:00:00Z,26.4679,-82.0631,1.98,34.41,1111122 
SCCF RECON,ioos:station:SCCF:11:1,2013-06-07T06:00:00Z,26.4679,-82.0631,1.99,34.35,1111122 
SCCF RECON,ioos:station:SCCF:11:1,2013-06-07T07:00:00Z,26.4679,-82.0631,1.99,34.41,1111122 
SCCF RECON,ioos:station:SCCF:11:1,2013-06-07T08:00:00Z,26.4679,-82.0631,1.93,34.14,1111122 
SCCF RECON,ioos:station:SCCF:11:1,2013-06-07T09:00:00Z,26.4679,-82.0631,1.85,33.69,1111122 
SCCF RECON,ioos:station:SCCF:11:1,2013-06-07T10:00:00Z,26.4679,-82.0631,1.85,33.1,1111122 
SCCF RECON,ioos:station:SCCF:11:1,2013-06-07T11:00:00Z,26.4679,-82.0631,1.87,33.66,1111122 
SCCF RECON,ioos:station:SCCF:11:1,2013-06-07T12:00:00Z,26.4679,-82.0631,1.89,33.91,1111122 
SCCF RECON,ioos:station:SCCF:11:1,2013-06-07T13:00:00Z,26.4679,-82.0631,1.91,33.82,1111122 
SCCF RECON,ioos:station:SCCF:11:1,2013-06-07T14:00:00Z,26.4679,-82.0631,1.997,34.11,1111122 
SCCF RECON,ioos:station:SCCF:11:1,2013-06-07T15:00:00Z,26.4679,-82.0631,2.108,34.55,1111122 
SCCF RECON,ioos:station:SCCF:11:1,2013-06-07T16:00:00Z,26.4679,-82.0631,2.18,34.55,1111122 
SCCF RECON,ioos:station:SCCF:11:1,2013-06-07T17:00:00Z,26.4679,-82.0631,2.2,34.5,1111122 
SCCF RECON,ioos:station:SCCF:11:1,2013-06-07T18:00:00Z,26.4679,-82.0631,2.09,33.92,1111122 
SCCF RECON,ioos:station:SCCF:11:1,2013-06-07T19:00:00Z,26.4679,-82.0631,1.93,33.6,1111122 
SCCF RECON,ioos:station:SCCF:11:1,2013-06-07T20:00:00Z,26.4679,-82.0631,1.81,33.31,1111122 
SCCF RECON,ioos:station:SCCF:11:1,2013-06-07T21:00:00Z,26.4679,-82.0631,1.69,33.16,1111122 
SCCF RECON,ioos:station:SCCF:11:1,2013-06-07T22:00:00Z,26.4679,-82.0631,1.53,33.07,1111122 
SCCF RECON,ioos:station:SCCF:11:1,2013-06-07T23:00:00Z,26.4679,-82.0631,1.4,32.85,1111122 
SCCF RECON,ioos:station:SCCF:11:1,2013-06-08T00:00:00Z,26.4679,-82.0631,1.328,32.54,1111122 
SCCF RECON,ioos:station:SCCF:11:1,2013-06-08T01:00:00Z,26.4679,-82.0631,1.32,32.58,1111122 
SCCF RECON,ioos:station:SCCF:11:1,2013-06-08T02:00:00Z,26.4679,-82.0631,1.451,32.96,1111122 
SCCF RECON,ioos:station:SCCF:11:1,2013-06-08T03:00:00Z,26.4679,-82.0631,1.603,33.71,1111122 
SCCF RECON,ioos:station:SCCF:11:1,2013-06-08T04:00:00Z,26.4679,-82.0631,1.72,33.16,1111122 
SCCF RECON,ioos:station:SCCF:11:1,2013-06-08T05:00:00Z,26.4679,-82.0631,1.81,30.8,1111122 
SCCF RECON,ioos:station:SCCF:11:1,2013-06-08T06:00:00Z,26.4679,-82.0631,1.862,31.77,1111122 
SCCF RECON,ioos:station:SCCF:11:1,2013-06-08T07:00:00Z,26.4679,-82.0631,1.89,32.02,1111122 
SCCF RECON,ioos:station:SCCF:11:1,2013-06-08T08:00:00Z,26.4679,-82.0631,1.84,31.81,1111122 
SCCF RECON,ioos:station:SCCF:11:1,2013-06-08T09:00:00Z,26.4679,-82.0631,1.77,32.14,1111122 
SCCF RECON,ioos:station:SCCF:11:1,2013-06-08T10:00:00Z,26.4679,-82.0631,1.74,32.42,1111122 
SCCF RECON,ioos:station:SCCF:11:1,2013-06-08T11:00:00Z,26.4679,-82.0631,1.73,32.5,1111122 
SCCF RECON,ioos:station:SCCF:11:1,2013-06-08T12:00:00Z,26.4679,-82.0631,1.78,32.64,1111122 
SCCF RECON,ioos:station:SCCF:11:1,2013-06-08T13:00:00Z,26.4679,-82.0631,1.87,33.22,1111122 
SCCF RECON,ioos:station:SCCF:11:1,2013-06-08T14:00:00Z,26.4679,-82.0631,1.968,33.32,1111122 
SCCF RECON,ioos:station:SCCF:11:1,2013-06-08T15:00:00Z,26.4679,-82.0631,2.06,33.49,1111122 
SCCF RECON,ioos:station:SCCF:11:1,2013-06-08T16:00:00Z,26.4679,-82.0631,2.14,33.53,1111122 
SCCF RECON,ioos:station:SCCF:11:1,2013-06-08T17:00:00Z,26.4679,-82.0631,2.14,34.55,1111122 
SCCF RECON,ioos:station:SCCF:11:1,2013-06-08T18:00:00Z,26.4679,-82.0631,2.13,34.59,1111122 
SCCF RECON,ioos:station:SCCF:11:1,2013-06-08T19:00:00Z,26.4679,-82.0631,2.05,33.54,1111122 
SCCF RECON,ioos:station:SCCF:11:1,2013-06-08T20:00:00Z,26.4679,-82.0631,1.89,33.1,1111122 
SCCF RECON,ioos:station:SCCF:11:1,2013-06-08T21:00:00Z,26.4679,-82.0631,1.74,32.94,1111122 
SCCF RECON,ioos:station:SCCF:11:1,2013-06-08T22:00:00Z,26.4679,-82.0631,1.61,32.99,1111122 
SCCF RECON,ioos:station:SCCF:11:1,2013-06-08T23:00:00Z,26.4679,-82.0631,1.47,32.97,1111122 
SCCF RECON,ioos:station:SCCF:11:1,2013-06-09T00:00:00Z,26.4679,-82.0631,1.358,33.02,1111122 
SCCF RECON,ioos:station:SCCF:11:1,2013-06-09T01:00:00Z,26.4679,-82.0631,1.31,33.0,1111122 
SCCF RECON,ioos:station:SCCF:11:1,2013-06-09T02:00:00Z,26.4679,-82.0631,1.39,33.04,1111122 
SCCF RECON,ioos:station:SCCF:11:1,2013-06-09T03:00:00Z,26.4679,-82.0631,1.538,33.09,1111122 
SCCF RECON,ioos:station:SCCF:11:1,2013-06-09T04:00:00Z,26.4679,-82.0631,1.645,31.31,1111122 
SCCF RECON,ioos:station:SCCF:11:1,2013-06-09T05:00:00Z,26.4679,-82.0631,1.76,31.89,1111122 
SCCF RECON,ioos:station:SCCF:11:1,2013-06-09T06:00:00Z,26.4679,-82.0631,1.85,30.3,1111122 
SCCF RECON,ioos:station:SCCF:11:1,2013-06-09T07:00:00Z,26.4679,-82.0631,1.88,29.76,1111122 
SCCF RECON,ioos:station:SCCF:11:1,2013-06-09T08:00:00Z,26.4679,-82.0631,1.86,29.71,1111122 
SCCF RECON,ioos:station:SCCF:11:1,2013-06-09T09:00:00Z,26.4679,-82.0631,1.81,30.43,1111122 
SCCF RECON,ioos:station:SCCF:11:1,2013-06-09T10:00:00Z,26.4679,-82.0631,1.78,31.28,1111122 
SCCF RECON,ioos:station:SCCF:11:1,2013-06-09T11:00:00Z,26.4679,-82.0631,1.7,31.4,1111122 
SCCF RECON,ioos:station:SCCF:11:1,2013-06-09T12:00:00Z,26.4679,-82.0631,1.65,31.77,1111122 
SCCF RECON,ioos:station:SCCF:11:1,2013-06-09T13:00:00Z,26.4679,-82.0631,1.69,31.99,1111122 
SCCF RECON,ioos:station:SCCF:11:1,2013-06-09T14:00:00Z,26.4679,-82.0631,1.82,31.86,1111122 
SCCF RECON,ioos:station:SCCF:11:1,2013-06-09T15:00:00Z,26.4679,-82.0631,1.96,31.23,1111122 
SCCF RECON,ioos:station:SCCF:11:1,2013-06-09T16:00:00Z,26.4679,-82.0631,2.05,32.63,1111122 
SCCF RECON,ioos:station:SCCF:11:1,2013-06-09T17:00:00Z,26.4679,-82.0631,2.12,33.3,1111122 
SCCF RECON,ioos:station:SCCF:11:1,2013-06-09T18:00:00Z,26.4679,-82.0631,2.15,33.44,1111122 
SCCF RECON,ioos:station:SCCF:11:1,2013-06-09T19:00:00Z,26.4679,-82.0631,2.08,33.16,1111122 
SCCF RECON,ioos:station:SCCF:11:1,2013-06-09T20:00:00Z,26.4679,-82.0631,1.96,32.05,1111122 
SCCF RECON,ioos:station:SCCF:11:1,2013-06-09T21:00:00Z,26.4679,-82.0631,1.8,32.09,1111122 
SCCF RECON,ioos:station:SCCF:11:1,2013-06-09T22:00:00Z,26.4679,-82.0631,1.68,32.11,1111122 
SCCF RECON,ioos:station:SCCF:11:1,2013-06-09T23:00:00Z,26.4679,-82.0631,1.557,32.2,1111122 
SCCF RECON,ioos:station:SCCF:11:1,2013-06-10T00:00:00Z,26.4679,-82.0631,1.448,32.38,1111122 
SCCF RECON,ioos:station:SCCF:11:1,2013-06-10T01:00:00Z,26.4679,-82.0631,1.38,32.46,1111122 
SCCF RECON,ioos:station:SCCF:11:1,2013-06-10T02:00:00Z,26.4679,-82.0631,1.39,32.45,1111122 
SCCF RECON,ioos:station:SCCF:11:1,2013-06-10T03:00:00Z,26.4679,-82.0631,1.53,32.71,1111122 
SCCF RECON,ioos:station:SCCF:11:1,2013-06-10T04:00:00Z,26.4679,-82.0631,1.68,30.2,1111122 
SCCF RECON,ioos:station:SCCF:11:1,2013-06-10T05:00:00Z,26.4679,-82.0631,1.81,30.88,1111122 
SCCF RECON,ioos:station:SCCF:11:1,2013-06-10T06:00:00Z,26.4679,-82.0631,1.9,30.2,1111122 
SCCF RECON,ioos:station:SCCF:11:1,2013-06-10T07:00:00Z,26.4679,-82.0631,1.95,29.95,1111122 
SCCF RECON,ioos:station:SCCF:11:1,2013-06-10T08:00:00Z,26.4679,-82.0631,1.97,30.63,1111122 
SCCF RECON,ioos:station:SCCF:11:1,2013-06-10T09:00:00Z,26.4679,-82.0631,1.92,30.97,1111122 
SCCF RECON,ioos:station:SCCF:11:1,2013-06-10T10:00:00Z,26.4679,-82.0631,1.84,30.77,1111122 
SCCF RECON,ioos:station:SCCF:11:1,2013-06-10T11:00:00Z,26.4679,-82.0631,1.78,31.27,1111122 
SCCF RECON,ioos:station:SCCF:11:1,2013-06-10T12:00:00Z,26.4679,-82.0631,1.74,31.43,1111122 
SCCF RECON,ioos:station:SCCF:11:1,2013-06-10T13:00:00Z,26.4679,-82.0631,1.74,31.35,1111122 
SCCF RECON,ioos:station:SCCF:11:1,2013-06-10T14:00:00Z,26.4679,-82.0631,1.81,31.67,1111122 
SCCF RECON,ioos:station:SCCF:11:1,2013-06-10T15:00:00Z,26.4679,-82.0631,1.927,31.85,1111122 
SCCF RECON,ioos:station:SCCF:11:1,2013-06-10T16:00:00Z,26.4679,-82.0631,2.02,30.79,1111122 
SCCF RECON,ioos:station:SCCF:11:1,2013-06-10T17:00:00Z,26.4679,-82.0631,2.09,32.18,1111122 
SCCF RECON,ioos:station:SCCF:11:1,2013-06-10T18:00:00Z,26.4679,-82.0631,2.14,33.11,1111122 
SCCF RECON,ioos:station:SCCF:11:1,2013-06-10T19:00:00Z,26.4679,-82.0631,2.12,33.59,1111122 
SCCF RECON,ioos:station:SCCF:11:1,2013-06-10T20:00:00Z,26.4679,-82.0631,2.04,31.97,1111122 
SCCF RECON,ioos:station:SCCF:11:1,2013-06-10T21:00:00Z,26.4679,-82.0631,1.901,31.75,1111122 
SCCF RECON,ioos:station:SCCF:11:1,2013-06-10T22:00:00Z,26.4679,-82.0631,1.78,31.82,1111122 
SCCF RECON,ioos:station:SCCF:11:1,2013-06-10T23:00:00Z,26.4679,-82.0631,1.64,31.88,1111122 
SCCF RECON,ioos:station:SCCF:11:1,2013-06-11T00:00:00Z,26.4679,-82.0631,1.52,32.0,1111122 
SCCF RECON,ioos:station:SCCF:11:1,2013-06-11T01:00:00Z,26.4679,-82.0631,1.41,32.13,1111122 
SCCF RECON,ioos:station:SCCF:11:1,2013-06-11T02:00:00Z,26.4679,-82.0631,1.37,32.27,1111122 
SCCF RECON,ioos:station:SCCF:11:1,2013-06-11T03:00:00Z,26.4679,-82.0631,1.4,32.14,1111122 
SCCF RECON,ioos:station:SCCF:11:1,2013-06-11T04:00:00Z,26.4679,-82.0631,1.51,32.56,1111122 
SCCF RECON,ioos:station:SCCF:11:1,2013-06-11T05:00:00Z,26.4679,-82.0631,1.66,30.18,1111122 
SCCF RECON,ioos:station:SCCF:11:1,2013-06-11T06:00:00Z,26.4679,-82.0631,1.8,28.88,1111122 
SCCF RECON,ioos:station:SCCF:11:1,2013-06-11T07:00:00Z,26.4679,-82.0631,1.91,28.86,1111122 
SCCF RECON,ioos:station:SCCF:11:1,2013-06-11T08:00:00Z,26.4679,-82.0631,1.95,29.65,1111122 
SCCF RECON,ioos:station:SCCF:11:1,2013-06-11T09:00:00Z,26.4679,-82.0631,1.94,30.37,1111122 
SCCF RECON,ioos:station:SCCF:11:1,2013-06-11T10:00:00Z,26.4679,-82.0631,1.87,29.79,1111122 
SCCF RECON,ioos:station:SCCF:11:1,2013-06-11T11:00:00Z,26.4679,-82.0631,1.79,29.76,1111122 
SCCF RECON,ioos:station:SCCF:11:1,2013-06-11T12:00:00Z,26.4679,-82.0631,1.74,30.4,1111122 
SCCF RECON,ioos:station:SCCF:11:1,2013-06-11T13:00:00Z,26.4679,-82.0631,1.74,30.33,1111122 
SCCF RECON,ioos:station:SCCF:11:1,2013-06-11T14:00:00Z,26.4679,-82.0631,1.77,30.27,1111122 
SCCF RECON,ioos:station:SCCF:11:1,2013-06-11T15:00:00Z,26.4679,-82.0631,1.832,30.13,1111122 
SCCF RECON,ioos:station:SCCF:11:1,2013-06-11T16:00:00Z,26.4679,-82.0631,1.96,31.08,1111122 
SCCF RECON,ioos:station:SCCF:11:1,2013-06-11T17:00:00Z,26.4679,-82.0631,2.06,30.49,1111122 
SCCF RECON,ioos:station:SCCF:11:1,2013-06-11T18:00:00Z,26.4679,-82.0631,2.081,30.51,1111122 
SCCF RECON,ioos:station:SCCF:11:1,2013-06-11T19:00:00Z,26.4679,-82.0631,2.1,30.65,1111122 